Stations météo

réclame
Mon MeteoGroup
Gotska sandoen, Suède (2589): Température de l'air & dewpoint: 12.10.2017 16:00:00 - 18.10.2017 16:00:00 (CEST)Gotska sandoen, Suède (2589): Vitesse du vent & gusts: 12.10.2017 16:00:00 - 18.10.2017 16:00:00 (CEST)Gotska sandoen, Suède (2589): Direction du vent: 12.10.2017 16:00:00 - 18.10.2017 16:00:00 (CEST)Gotska sandoen, Suède (2589): reduced air pressure: 12.10.2017 16:00:00 - 18.10.2017 16:00:00 (CEST)Gotska sandoen, Suède (2589): visibility: 12.10.2017 16:00:00 - 18.10.2017 16:00:00 (CEST)Gotska sandoen, Suède (2589): Quantités de précipitations: 12.10.2017 16:00:00 - 18.10.2017 16:00:00 (CEST)
Date & Time tt [°C] td [°C] ff [km/h] ff [knt] fx [km/h] fx [knt] dd ppp [hPa] vv [km] rr [mm]
18.10.2017 16:00:00 9,1 5,8 14 7 28 15 W 1013,0 50 0,0
18.10.2017 15:00:00 9,6 6,5 16 9 28 15 WNW 1012,6 47 0,0
18.10.2017 14:00:00 10,0 6,0 14 8 26 14 WNW 1012,4 50 0,0
18.10.2017 13:00:00 10,1 6,3 14 8 24 13 NW 1011,5 44 0,0
18.10.2017 12:00:00 9,7 6,0 12 6 28 15 NW 1010,8 50 0,0
18.10.2017 11:00:00 9,7 7,0 16 8 32 17 NNW 1010,2 49 0,0
18.10.2017 10:00:00 9,5 7,9 14 8 38 21 N 1009,0 47 0,0
18.10.2017 09:00:00 9,5 8,7 18 10 41 22 N 1007,7 12 0,0
18.10.2017 08:00:00 10,9 10,0 20 11 43 23 WNW 1005,9 7 0,0
18.10.2017 07:00:00 11,1 10,5 28 15 55 30 W 1004,8 10 0,1
18.10.2017 06:00:00 11,7 9,8 31 17 55 30 WSW 1004,2 19 0,0
18.10.2017 05:00:00 11,7 9,8 32 17 63 34 WSW 1003,9 18 0,0
18.10.2017 04:00:00 11,6 9,8 33 18 55 30 WSW 1003,8 13 0,0
18.10.2017 03:00:00 11,7 9,8 33 18 55 30 SW 1004,2 12 0,0
18.10.2017 02:00:00 11,7 9,8 34 19 57 31 SW 1004,6 12 0,0
18.10.2017 01:00:00 11,8 9,7 34 18 56 30 SW 1004,8 12 0,0
18.10.2017 00:00:00 11,6 9,5 32 17 53 29 SW 1005,1 12 0,0
17.10.2017 23:00:00 11,7 9,4 31 17 49 27 SW 1005,7 13 0,0
17.10.2017 22:00:00 11,9 9,5 28 15 49 27 SW 1005,7 15 0,0
17.10.2017 21:00:00 12,1 9,3 33 18 56 30 SW 1005,9 16 0,0
17.10.2017 20:00:00 12,5 9,3 29 15 47 25 SW 1006,2 16 0,0
17.10.2017 19:00:00 12,1 9,5 24 13 36 20 WSW 1006,9 15 0,0
17.10.2017 18:00:00 12,5 9,5 24 13 42 23 WSW 1007,2 17 0,0
17.10.2017 17:00:00 11,7 11,2 27 14 47 26 SW 1007,4 4,7 0,0
17.10.2017 16:00:00 11,6 11,4 25 13 50 27 SW 1007,5 2,3 0,0
17.10.2017 15:00:00 11,6 11,6 30 16 53 28 SW 1007,7 1,2 0,0
17.10.2017 14:00:00 12,0 11,8 33 18 63 34 SW 1008,1 1,9 0,0
17.10.2017 13:00:00 12,7 12,4 37 20 63 34 SW 1009,3 2,8 0,0
17.10.2017 12:00:00 12,2 11,3 26 14 48 26 S 1009,3 15 0,0
17.10.2017 11:00:00 11,4 10,6 26 14 42 23 S 1010,9 14 0,0
17.10.2017 10:00:00 10,8 10,6 19 11 36 20 S 1012,1 9 0,1
17.10.2017 09:00:00 10,8 10,6 20 11 33 18 S 1012,7 11 0,1
17.10.2017 08:00:00 10,5 10,5 10 6 15 8 S 1013,5 11 0,0
17.10.2017 07:00:00 10,6 10,6 10 5 14 8 SSW 1015,0 9 0,0
17.10.2017 06:00:00 10,7 10,5 7 4 22 12 WSW 1015,8 9 0,0
17.10.2017 05:00:00 10,8 10,5 14 8 24 13 WSW 1016,1 12 0,0
17.10.2017 04:00:00 10,8 10,5 11 6 19 10 WSW 1016,0 13 0,0
17.10.2017 03:00:00 10,5 10,3 11 6 19 10 WSW 1015,9 10 0,0
17.10.2017 02:00:00 10,1 10,1 10 5 16 9 WSW 1015,9 9 0,0
17.10.2017 01:00:00 9,8 9,7 10 5 15 8 WSW 1015,7 7 0,0
17.10.2017 00:00:00 10,0 9,7 5 3 16 8 WNW 1015,8 9 0,0
16.10.2017 23:00:00 10,5 10,0 9 5 23 13 WSW 1015,2 12 0,0
16.10.2017 22:00:00 10,8 10,3 14 8 26 14 W 1015,6 13 0,0
16.10.2017 21:00:00 10,8 10,2 14 7 23 12 W 1015,2 14 0,0
16.10.2017 20:00:00 11,2 10,4 13 7 26 14 W 1014,8 15 0,0
16.10.2017 19:00:00 11,3 10,4 15 8 29 16 W 1014,5 16 0,0
16.10.2017 18:00:00 11,5 10,2 17 9 33 18 W 1013,4 16 0,0
16.10.2017 17:00:00 12,1 10,7 18 10 32 17 W 1012,8 20 0,0
16.10.2017 16:00:00 13,3 11,0 16 9 30 16 W 1012,2 23 0,0
16.10.2017 15:00:00 14,0 11,5 18 10 35 19 W 1011,8 24 0,0
16.10.2017 14:00:00 14,1 11,6 20 11 41 22 W 1011,3 24 0,0
16.10.2017 13:00:00 14,6 11,9 24 13 40 22 W 1010,8 31 0,0
16.10.2017 12:00:00 14,1 11,8 21 11 39 21 WSW 1010,7 19 0,0
16.10.2017 11:00:00 13,2 11,6 26 14 42 23 WSW 1010,2 11 0,0
16.10.2017 10:00:00 12,7 11,8 25 14 55 30 SW 1010,0 8 0,0
16.10.2017 09:00:00 12,3 11,7 31 17 52 28 SW 1009,5 6 0,0
16.10.2017 08:00:00 12,3 11,7 33 18 54 29 SW 1009,6 6 0,0
16.10.2017 07:00:00 12,1 11,6 32 18 51 28 SW 1009,5 7 0,0
16.10.2017 06:00:00 11,6 11,4 27 15 47 26 SW 1010,9 6 0,0
16.10.2017 05:00:00 11,4 11,2 29 16 48 26 SSW 1011,6 7 0,0
16.10.2017 04:00:00 11,4 11,2 28 15 48 26 SW 1012,5 8 0,0
16.10.2017 03:00:00 11,5 11,2 29 16 44 24 SW 1013,3 13 0,0
16.10.2017 02:00:00 11,5 10,9 24 13 50 27 SW 1013,9 16 0,0
16.10.2017 01:00:00 11,7 10,9 24 13 44 24 SW 1014,4 21 0,0
16.10.2017 00:00:00 11,8 10,4 24 13 41 22 SW 1014,9 19 0,0
15.10.2017 23:00:00 12,1 9,5 24 13 36 20 SSW 1015,6 21 0,0
15.10.2017 22:00:00 11,7 9,8 21 11 35 19 SSW 1016,4 18 0,0
15.10.2017 21:00:00 11,8 9,4 23 13 38 21 SW 1017,4 18 0,0
15.10.2017 20:00:00 11,4 9,7 21 11 35 19 SW 1017,9 17 0,0
15.10.2017 19:00:00 11,3 9,7 16 9 30 16 SW 1018,2 16 0,0
15.10.2017 18:00:00 11,4 9,5 18 10 35 19 SW 1018,0 18 0,0
15.10.2017 17:00:00 11,5 9,6 20 11 34 18 WSW 1018,1 18 0,0
15.10.2017 16:00:00 11,8 9,9 14 8 24 13 WSW 1018,3 16 0,0
15.10.2017 15:00:00 12,0 9,9 13 7 30 16 W 1018,4 17 0,0
15.10.2017 14:00:00 11,9 8,9 15 8 30 16 W 1018,3 20 0,0
15.10.2017 13:00:00 12,7 9,2 16 9 32 17 W 1017,9 21 0,0
15.10.2017 12:00:00 11,6 9,0 16 9 31 17 W 1017,5 19 0,0
15.10.2017 11:00:00 11,7 9,1 15 8 28 15 W 1017,0 21 0,0
15.10.2017 10:00:00 10,9 9,2 13 7 31 17 W 1016,3 16 0,0
15.10.2017 09:00:00 10,5 8,9 16 9 35 19 W 1015,4 14 0,0
15.10.2017 08:00:00 10,3 9,2 17 9 35 19 W 1014,8 12 0,0
15.10.2017 07:00:00 10,4 9,5 21 11 39 21 W 1014,2 11 0,0
15.10.2017 06:00:00 10,6 9,8 21 11 40 22 W 1013,5 10 0,0
15.10.2017 05:00:00 10,6 9,8 22 12 45 24 W 1012,9 10 0,0
15.10.2017 04:00:00 10,8 9,9 23 12 43 23 W 1012,5 11 0,0
15.10.2017 03:00:00 11,1 10,2 23 13 42 23 W 1012,2 11 0,0
15.10.2017 02:00:00 11,0 10,1 24 13 45 25 W 1011,6 12 0,0
15.10.2017 01:00:00 11,1 10,2 23 12 46 25 W 1011,2 12 0,0
15.10.2017 00:00:00 11,3 10,4 23 12 44 24 W 1011,0 12 0,0
14.10.2017 23:00:00 11,1 10,5 25 14 43 23 W 1011,1 12 0,0
14.10.2017 22:00:00 11,0 10,5 22 12 38 21 WSW 1011,3 12 0,0
14.10.2017 21:00:00 11,1 10,8 22 12 40 22 WSW 1011,1 12 0,0
14.10.2017 20:00:00 11,3 10,8 24 13 46 25 W 1011,0 15 0,0
14.10.2017 19:00:00 11,5 11,2 26 14 46 25 W 1010,5 15 0,0
14.10.2017 18:00:00 11,5 11,2 23 13 38 21 W 1009,8 16 0,0
14.10.2017 17:00:00 11,9 11,4 24 13 42 23 W 1009,3 19 0,0
14.10.2017 16:00:00 12,6 12,0 25 13 46 25 W 1008,9 25 0,0
14.10.2017 15:00:00 13,0 12,8 24 13 37 20 W 1008,7 21 0,0
14.10.2017 14:00:00 13,3 13,1 23 12 43 23 WSW 1008,7 20 0,0
14.10.2017 13:00:00 13,6 13,6 26 14 46 25 WSW 1008,6 19 0,0
14.10.2017 12:00:00 12,7 12,7 28 15 45 24 WSW 1008,8 12 0,2
14.10.2017 11:00:00 12,3 12,3 26 14 45 24 SW 1008,6 8 1,1
14.10.2017 10:00:00 11,7 11,7 25 13 40 22 SW 1009,1 6 0,4
14.10.2017 09:00:00 11,2 11,2 21 12 37 20 SW 1009,3 5 0,2
14.10.2017 08:00:00 10,8 10,8 21 11 39 21 SSW 1009,7 8 0,6
14.10.2017 07:00:00 10,2 10,2 20 11 44 24 SSW 1010,4 6 2,0
14.10.2017 06:00:00 9,5 9,4 21 12 39 21 S 1011,4 4,7 1,3
14.10.2017 05:00:00 9,4 8,3 21 11 37 20 S 1012,4 11 0,3
14.10.2017 04:00:00 8,8 7,1 20 11 37 20 S 1013,7 49 0,0
14.10.2017 03:00:00 8,0 6,8 17 9 33 18 S 1014,4 41 0,1
14.10.2017 02:00:00 8,2 7,0 11 6 24 13 S 1016,0 18 0,1
14.10.2017 01:00:00 8,6 6,4 13 7 22 12 SSW 1016,3 41 0,0
14.10.2017 00:00:00 8,7 5,3 10 5 17 9 SW 1016,8 50 0,0
13.10.2017 23:00:00 8,1 5,4 7 4 14 7 WSW 1016,9 50 0,0
13.10.2017 22:00:00 7,6 5,2 6 4 13 7 W 1017,4 50 0,0
13.10.2017 21:00:00 7,7 5,3 6 3 14 7 W 1017,2 50 0,0
13.10.2017 20:00:00 8,2 5,5 10 5 21 11 NW 1017,2 50 0,0
13.10.2017 19:00:00 8,8 5,9 13 7 24 13 NW 1017,0 50 0,0
13.10.2017 18:00:00 8,9 6,3 17 9 32 17 NW 1016,7 50 0,0
13.10.2017 17:00:00 9,2 7,0 17 9 37 20 NW 1016,2 47 0,0
13.10.2017 16:00:00 9,4 6,8 17 9 37 20 NW 1015,9 43 0,0
13.10.2017 15:00:00 9,4 6,7 23 12 38 21 NNW 1015,4 49 0,0
13.10.2017 14:00:00 9,5 6,8 22 12 39 21 NW 1014,2 42 0,0
13.10.2017 13:00:00 9,7 6,4 24 13 41 22 NW 1013,7 36 0,0
13.10.2017 12:00:00 10,1 6,8 19 10 51 27 N 1012,0 35 0,0
13.10.2017 11:00:00 10,0 7,1 21 12 53 29 N 1010,9 28 0,0
13.10.2017 10:00:00 9,3 7,4 29 16 64 35 N 1009,6 27 0,0
13.10.2017 09:00:00 9,2 8,3 27 15 68 37 N 1008,2 14 0,0
13.10.2017 08:00:00 9,6 8,4 28 15 68 37 N 1006,5 19 0,0
13.10.2017 07:00:00 9,5 8,4 34 18 65 35 N 1004,6 18 0,0
13.10.2017 06:00:00 9,6 9,0 30 16 68 37 N 1002,5 11 0,0
13.10.2017 05:00:00 10,2 9,9 32 17 63 34 N 999,9 7 0,0
13.10.2017 04:00:00 10,0 9,2 16 8 32 17 NNW 998,1 26 0,0
13.10.2017 03:00:00 9,7 8,8 17 9 36 20 NW 996,7 37 0,0
13.10.2017 02:00:00 9,5 8,3 22 12 45 24 WNW 995,5 50 0,0
13.10.2017 01:00:00 9,4 8,0 24 13 48 26 WNW 994,8 48 0,0
13.10.2017 00:00:00 9,5 7,9 25 14 48 26 W 993,9 50 0,0
12.10.2017 23:00:00 9,8 7,1 25 14 48 26 W 993,4 50 0,0
12.10.2017 22:00:00 10,7 8,8 18 10 40 22 W 993,2 47 0,0
12.10.2017 21:00:00 10,1 7,9 27 15 55 30 W 993,2 50 0,0
12.10.2017 20:00:00 10,2 7,6 31 17 67 36 W 993,0 50 0,0
12.10.2017 19:00:00 10,6 8,9 30 16 60 33 W 992,9 46 0,0
12.10.2017 18:00:00 11,6 10,7 29 16 46 25 WSW 992,7 26 0,0
12.10.2017 17:00:00 11,7 10,9 27 14 42 23 SW 992,6 35 0,0
12.10.2017 16:00:00 11,8 11,3 21 11 44 24 SW 992,7 15 0,1

tt = Température de l'air
td = dewpoint
ff = Vitesse du vent
fx = gusts
dd = Direction du vent
ppp = reduced air pressure
vv = visibility
rr = Quantités de précipitations

stations d'obs. à proximité